Theta_e
315 315 317 317 317 317 317 316 317 319 320 321 321 323 325 324 324 325 325 326 327 328 328 331 333 333 332
308 312 314 313 312 312 312 311 311 313 315 316 316 318 321 321 320 321 323 324 324 325 325 324 330 329 329
307 308 310 309 308 308 307 307 307 307 307 309 313 315 317 317 318 318 320 321 320 319 321 322 323 330 327
307 305 305 305 304 304 303 302 303 303 304 306 308 312 313 313 315 317 317 316 315 315 317 320 319 320 323
302 304 303 303 302 302 301 301 300 301 301 302 304 307 308 310 309 311 311 311 311 312 314 314 315 317 321
301 302 298 301 299 300 300 300 298 298 298 299 300 302 304 306 307 308 309 309 309 309 310 312 311 312 313
298 298 295 295 294 296 296 296 297 296 296 298 298 299 300 302 304 307 308 307 307 306 307 307 307 308 309
294 293 293 292 292 292 292 293 294 296 295 296 297 297 298 300 302 305 307 307 305 305 303 304 304 305 306
293 294 294 293 292 292 292 292 292 293 293 293 295 296 297 299 301 302 305 307 304 303 302 302 302 302 304
293 293 294 295 292 292 291 291 291 292 291 292 293 294 296 298 299 299 300 304 303 301 300 299 299 300 301
292 293 292 293 292 291 290 290 290 291 291 289 291 294 295 295 296 297 297 300 301 300 300 298 298 298 299
290 290 290 290 291 290 288 290 290 290 290 288 289 291 293 294 294 295 295 297 300 299 299 297 297 297 298
287 287 287 286 288 288 289 289 289 289 289 287 287 288 289 292 293 294 295 294 296 299 297 297 296 296 296
287 287 286 286 287 287 288 288 289 289 288 287 286 286 288 289 290 292 293 292 294 296 297 296 293 295 295
286 286 286 285 286 285 285 285 287 288 288 286 286 286 286 288 288 289 292 292 290 293 294 297 292 290 293
285 284 282 281 281 283 283 284 285 286 286 286 286 285 285 286 287 289 292 292 292 289 292 295 297 296 291
Wind_Speed
25 26 25 28 28 29 29 30 28 24 25 25 25 26 26 26 25 24 25 25 24 23 24 23 15 20 16
13 23 24 27 27 28 29 30 26 26 26 24 23 24 25 25 25 25 24 25 25 23 21 23 13 19 9
11 11 17 21 23 24 23 27 19 13 17 21 21 25 24 23 24 24 24 23 24 20 19 18 16 4 9
9 10 9 10 10 11 13 15 12 16 16 17 18 23 23 22 22 23 23 22 16 8 7 12 5 8 7
9 6 6 5 7 8 14 14 13 12 13 12 10 10 11 14 9 12 11 9 11 9 8 7 9 8 6
5 5 5 5 7 7 9 13 11 10 14 13 10 12 11 11 12 10 6 9 10 11 11 8 9 8 7
6 4 5 5 6 7 8 11 9 10 11 11 13 12 12 11 12 10 9 7 7 9 9 9 8 8 8
9 8 5 4 5 5 5 9 12 9 9 11 11 12 13 11 11 11 9 5 5 5 8 8 7 7 7
9 8 6 5 5 7 7 9 12 11 11 10 11 10 13 11 13 13 13 5 4 4 5 6 6 7 7
9 7 7 7 5 6 7 7 13 13 14 11 10 11 12 12 11 11 12 7 3 3 3 4 5 5 6
9 8 8 7 4 4 6 8 12 11 13 10 9 11 13 10 12 11 12 11 6 3 2 3 4 4 5
6 6 6 7 6 6 5 8 10 9 12 10 9 11 12 10 12 12 14 12 7 4 3 2 2 2 3
4 6 6 7 7 7 7 9 10 10 11 11 10 11 11 11 13 14 10 15 11 3 3 0 1 2 3
4 4 3 5 5 5 8 10 11 11 11 11 11 11 11 10 14 14 15 10 8 12 4 3 2 0 1
7 4 5 4 6 7 8 9 11 11 11 11 11 10 11 9 10 13 13 16 10 10 14 4 2 2 2
7 6 9 6 6 6 7 7 8 10 11 12 12 11 11 9 11 11 11 10 10 11 9 10 9 1 1
Wind_Direction
20 15 17 16 12 10 8 5 4 4 5 1 358 356 351 351 351 347 343 339 334 327 328 318 273 200 185
18 16 18 19 13 10 6 1 -0 357 358 358 356 354 353 351 349 349 347 347 338 334 336 345 267 171 175
21 13 19 19 14 11 6 3 359 354 354 350 347 354 353 351 348 350 349 350 342 333 339 346 16 201 147
12 11 15 10 10 10 5 0 0 360 353 351 348 346 348 351 345 348 347 348 343 332 330 339 26 350 112
11 358 4 7 8 6 9 8 357 359 358 355 347 341 341 346 345 340 343 343 339 336 331 353 3 17 10
2 6 360 2 13 11 7 3 6 1 356 356 349 345 345 342 334 334 333 337 341 340 343 355 10 10 9
357 346 7 9 17 5 11 7 1 1 358 350 350 348 344 338 329 327 327 338 340 342 345 354 11 357 31
2 348 349 360 16 14 5 4 2 356 352 350 350 349 346 338 333 323 320 323 334 340 346 349 5 7 28
359 357 349 355 15 21 11 4 2 4 353 347 349 348 345 341 339 338 328 319 331 341 346 344 350 11 19
354 355 0 8 15 16 10 6 2 359 356 349 343 353 343 345 345 346 337 322 324 346 341 357 343 354 25
354 351 356 353 15 14 12 9 1 357 355 352 342 345 349 346 351 351 338 334 322 334 338 17 347 355 27
352 339 351 358 359 8 3 7 360 357 355 353 344 347 347 350 352 354 345 335 320 319 318 353 342 1 13
358 359 3 359 359 1 4 354 359 359 357 354 351 348 351 346 348 352 350 344 341 302 289 234 258 35 18
351 355 2 355 356 353 358 358 355 356 356 356 351 350 347 347 351 351 359 352 332 342 316 273 335 131 81
3 0 9 353 0 2 359 351 348 349 347 354 352 355 349 349 354 348 355 358 345 337 336 317 333 354 337
13 26 32 12 2 353 348 342 345 348 347 353 354 353 350 346 353 353 346 352 355 350 333 345 321 81 323